User: anonymous   Login
Location: Erlenbrunn
(49.1717°N, 7.6142°E)
Time: 15:59:28
(UTC+00:00)
Language:

Cosmos 1666 Rocket - Orbit

View from above orbital plane
View from above orbital plane
View from above satellite
View from above satellite

Ground track
Ground track

The orbit data is extracted from the following two-line orbital elements,

1 15890U 85058B   21063.14434329  .00000076  00000-0  62961-5 0  9993
2 15890  82.5237  71.6408 0022379  71.3760  44.0783 14.83463620925936
Epoch (UTC): 04 March 2021 03:27:51
Eccentricity: 0.0022379
inclination: 82.5237°
perigee height: 603 km
apogee height: 634 km
right ascension of ascending node: 71.6408°
argument of perigee: 71.3760°
revolutions per day: 14.83463620
mean anomaly at epoch: 44.0783°
orbit number at epoch: 92593

The dashed part of the orbit path shows where the satellite is in the earth's shadow,  

DLR